Location: Carson
(33.8314°N, 118.2820°W)
Time: 14:00:52
(UTC+00:00)

Atlas Centaur 2 - Pass Details

Date: 23 November 2020
Orbit: 459 x 1309 km, 30.4° (Epoch: 21 January)

Event Time Altitude Azimuth Distance (km) Brightness Sun altitude
Exits shadow 13:20:21 - 231° (SW) 3,102 4.8 -15.1°
Reaches altitude 10° 13:22:13 10° 225° (SW) 2,448 4.3 -14.7°
Maximum altitude 13:27:13 31° 164° (SSE) 1,228 3.4 -13.7°
Drops below altitude 10° 13:31:18 10° 102° (ESE) 1,979 5.6 -12.9°
Sets 13:33:34 0° 91° (E) 2,773 6.6 -12.5°
